Starlink 33604

operational
NORAD ID: 63070 Int'l Des: 2025-035 Owner: SPXS Country: US Constellation: starlink
LEOCIRCULAR

Über Starlink 33604

Beschreibung wird geladen...

Live-Position

3D-Globus wird geladen...

Nächste Überflüge

Höhenverlauf

Altitude vs Time

uPlot chart will show altitude changes over time

Zweizeiliger Elementsatz

1 63070U 25035U 25352.07750998 .00027437 00000-0 10026-2 0 9997
2 63070 42.9998 248.3798 0001321 275.2392 84.8309 15.27589479 47232
Epoch: 18. Dez. 2025 • Age: 25 hours

Aktueller Status

Höhe 482.9 km
Geschwindigkeit 7.63 km/s
Subsatellitenpunkt 23.52°N, 135.27°E
Startdatum 21. Feb. 2025
Alter 0.8 years
Typ internet

Technische Details

Klassifizierung Payload
Masse 575.00 kg
Trockenmasse 530.00 kg
Gesamtmasse 575.00 kg
Länge 0.30 m
Durchmesser 4.10 m
Spannweite 29.00 m
Form Box + pan
Hersteller SPXS
Bus-Typ Starlink V2MO
Phasenstatus In Orbit
Besitzer/Staat SPXS/US

Große Konstellationen

Loading constellations...